Index of /20260416/WXO-DD/model_rdps/10km/18/011
Name Last modified Size Description
Parent Directory -
20260416T18Z_MSC_RDPS_AbsoluteVorticity_IsbL-0250_RLatLon0.09_PT011H.grib2 2026-04-16 20:43 610K
20260416T18Z_MSC_RDPS_AbsoluteVorticity_IsbL-0500_RLatLon0.09_PT011H.grib2 2026-04-16 20:43 553K
20260416T18Z_MSC_RDPS_AbsoluteVorticity_IsbL-0700_RLatLon0.09_PT011H.grib2 2026-04-16 20:43 613K
20260416T18Z_MSC_RDPS_AbsoluteVorticity_IsbL-0850_RLatLon0.09_PT011H.grib2 2026-04-16 20:43 773K
20260416T18Z_MSC_RDPS_AirTemp_AGL-120m_RLatLon0.09_PT011H.grib2 2026-04-16 20:43 371K
20260416T18Z_MSC_RDPS_AirTemp_AGL-2m_RLatLon0.09_PT011H.grib2 2026-04-16 20:43 626K
20260416T18Z_MSC_RDPS_AirTemp_AGL-40m_RLatLon0.09_PT011H.grib2 2026-04-16 20:43 402K
20260416T18Z_MSC_RDPS_AirTemp_AGL-80m_RLatLon0.09_PT011H.grib2 2026-04-16 20:43 377K
20260416T18Z_MSC_RDPS_AirTemp_IsbL-0001_RLatLon0.09_PT011H.grib2 2026-04-16 20:43 289K
20260416T18Z_MSC_RDPS_AirTemp_IsbL-0005_RLatLon0.09_PT011H.grib2 2026-04-16 20:43 325K
20260416T18Z_MSC_RDPS_AirTemp_IsbL-0010_RLatLon0.09_PT011H.grib2 2026-04-16 20:43 294K
20260416T18Z_MSC_RDPS_AirTemp_IsbL-0020_RLatLon0.09_PT011H.grib2 2026-04-16 20:43 350K
20260416T18Z_MSC_RDPS_AirTemp_IsbL-0030_RLatLon0.09_PT011H.grib2 2026-04-16 20:43 372K
20260416T18Z_MSC_RDPS_AirTemp_IsbL-0050_RLatLon0.09_PT011H.grib2 2026-04-16 20:43 324K
20260416T18Z_MSC_RDPS_AirTemp_IsbL-0100_RLatLon0.09_PT011H.grib2 2026-04-16 20:43 423K
20260416T18Z_MSC_RDPS_AirTemp_IsbL-0150_RLatLon0.09_PT011H.grib2 2026-04-16 20:43 406K
20260416T18Z_MSC_RDPS_AirTemp_IsbL-0175_RLatLon0.09_PT011H.grib2 2026-04-16 20:43 405K
20260416T18Z_MSC_RDPS_AirTemp_IsbL-0200_RLatLon0.09_PT011H.grib2 2026-04-16 20:43 410K
20260416T18Z_MSC_RDPS_AirTemp_IsbL-0225_RLatLon0.09_PT011H.grib2 2026-04-16 20:43 411K
20260416T18Z_MSC_RDPS_AirTemp_IsbL-0250_RLatLon0.09_PT011H.grib2 2026-04-16 20:43 421K
20260416T18Z_MSC_RDPS_AirTemp_IsbL-0275_RLatLon0.09_PT011H.grib2 2026-04-16 20:43 405K
20260416T18Z_MSC_RDPS_AirTemp_IsbL-0300_RLatLon0.09_PT011H.grib2 2026-04-16 20:43 436K
20260416T18Z_MSC_RDPS_AirTemp_IsbL-0350_RLatLon0.09_PT011H.grib2 2026-04-16 20:43 422K
20260416T18Z_MSC_RDPS_AirTemp_IsbL-0400_RLatLon0.09_PT011H.grib2 2026-04-16 20:43 387K
20260416T18Z_MSC_RDPS_AirTemp_IsbL-0450_RLatLon0.09_PT011H.grib2 2026-04-16 20:43 394K
20260416T18Z_MSC_RDPS_AirTemp_IsbL-0500_RLatLon0.09_PT011H.grib2 2026-04-16 20:43 404K
20260416T18Z_MSC_RDPS_AirTemp_IsbL-0550_RLatLon0.09_PT011H.grib2 2026-04-16 20:43 423K
20260416T18Z_MSC_RDPS_AirTemp_IsbL-0600_RLatLon0.09_PT011H.grib2 2026-04-16 20:43 441K
20260416T18Z_MSC_RDPS_AirTemp_IsbL-0650_RLatLon0.09_PT011H.grib2 2026-04-16 20:43 454K
20260416T18Z_MSC_RDPS_AirTemp_IsbL-0700_RLatLon0.09_PT011H.grib2 2026-04-16 20:43 477K
20260416T18Z_MSC_RDPS_AirTemp_IsbL-0750_RLatLon0.09_PT011H.grib2 2026-04-16 20:43 403K
20260416T18Z_MSC_RDPS_AirTemp_IsbL-0800_RLatLon0.09_PT011H.grib2 2026-04-16 20:43 449K
20260416T18Z_MSC_RDPS_AirTemp_IsbL-0850_RLatLon0.09_PT011H.grib2 2026-04-16 20:43 493K
20260416T18Z_MSC_RDPS_AirTemp_IsbL-0875_RLatLon0.09_PT011H.grib2 2026-04-16 20:43 507K
20260416T18Z_MSC_RDPS_AirTemp_IsbL-0900_RLatLon0.09_PT011H.grib2 2026-04-16 20:43 518K
20260416T18Z_MSC_RDPS_AirTemp_IsbL-0925_RLatLon0.09_PT011H.grib2 2026-04-16 20:43 520K
20260416T18Z_MSC_RDPS_AirTemp_IsbL-0950_RLatLon0.09_PT011H.grib2 2026-04-16 20:43 517K
20260416T18Z_MSC_RDPS_AirTemp_IsbL-0970_RLatLon0.09_PT011H.grib2 2026-04-16 20:43 512K
20260416T18Z_MSC_RDPS_AirTemp_IsbL-0985_RLatLon0.09_PT011H.grib2 2026-04-16 20:43 501K
20260416T18Z_MSC_RDPS_AirTemp_IsbL-1000_RLatLon0.09_PT011H.grib2 2026-04-16 20:43 484K
20260416T18Z_MSC_RDPS_AirTemp_IsbL-1015_RLatLon0.09_PT011H.grib2 2026-04-16 20:43 494K
20260416T18Z_MSC_RDPS_Albedo_Sfc_RLatLon0.09_PT011H.grib2 2026-04-16 20:43 165K
20260416T18Z_MSC_RDPS_CAPE_Sfc_RLatLon0.09_PT011H.grib2 2026-04-16 20:43 1.7M
20260416T18Z_MSC_RDPS_CIN_Sfc_RLatLon0.09_PT011H.grib2 2026-04-16 20:43 1.1M
20260416T18Z_MSC_RDPS_CloudWater_EAtm_RLatLon0.09_PT011H.grib2 2026-04-16 20:43 209K
20260416T18Z_MSC_RDPS_ConvectivePrecip-Accum_Sfc_RLatLon0.09_PT011H.grib2 2026-04-16 20:43 632K
20260416T18Z_MSC_RDPS_DewPointDepression_AGL-2m_RLatLon0.09_PT011H.grib2 2026-04-16 20:43 379K
20260416T18Z_MSC_RDPS_DewPointDepression_IsbL-0001_RLatLon0.09_PT011H.grib2 2026-04-16 20:43 193
20260416T18Z_MSC_RDPS_DewPointDepression_IsbL-0005_RLatLon0.09_PT011H.grib2 2026-04-16 20:43 193
20260416T18Z_MSC_RDPS_DewPointDepression_IsbL-0010_RLatLon0.09_PT011H.grib2 2026-04-16 20:43 193
20260416T18Z_MSC_RDPS_DewPointDepression_IsbL-0020_RLatLon0.09_PT011H.grib2 2026-04-16 20:43 193
20260416T18Z_MSC_RDPS_DewPointDepression_IsbL-0030_RLatLon0.09_PT011H.grib2 2026-04-16 20:43 12K
20260416T18Z_MSC_RDPS_DewPointDepression_IsbL-0050_RLatLon0.09_PT011H.grib2 2026-04-16 20:43 106K
20260416T18Z_MSC_RDPS_DewPointDepression_IsbL-0100_RLatLon0.09_PT011H.grib2 2026-04-16 20:43 123K
20260416T18Z_MSC_RDPS_DewPointDepression_IsbL-0150_RLatLon0.09_PT011H.grib2 2026-04-16 20:43 147K
20260416T18Z_MSC_RDPS_DewPointDepression_IsbL-0175_RLatLon0.09_PT011H.grib2 2026-04-16 20:43 177K
20260416T18Z_MSC_RDPS_DewPointDepression_IsbL-0200_RLatLon0.09_PT011H.grib2 2026-04-16 20:43 208K
20260416T18Z_MSC_RDPS_DewPointDepression_IsbL-0225_RLatLon0.09_PT011H.grib2 2026-04-16 20:43 251K
20260416T18Z_MSC_RDPS_DewPointDepression_IsbL-0250_RLatLon0.09_PT011H.grib2 2026-04-16 20:43 302K
20260416T18Z_MSC_RDPS_DewPointDepression_IsbL-0275_RLatLon0.09_PT011H.grib2 2026-04-16 20:43 307K
20260416T18Z_MSC_RDPS_DewPointDepression_IsbL-0300_RLatLon0.09_PT011H.grib2 2026-04-16 20:43 321K
20260416T18Z_MSC_RDPS_DewPointDepression_IsbL-0350_RLatLon0.09_PT011H.grib2 2026-04-16 20:43 320K
20260416T18Z_MSC_RDPS_DewPointDepression_IsbL-0400_RLatLon0.09_PT011H.grib2 2026-04-16 20:43 330K
20260416T18Z_MSC_RDPS_DewPointDepression_IsbL-0450_RLatLon0.09_PT011H.grib2 2026-04-16 20:43 337K
20260416T18Z_MSC_RDPS_DewPointDepression_IsbL-0500_RLatLon0.09_PT011H.grib2 2026-04-16 20:43 342K
20260416T18Z_MSC_RDPS_DewPointDepression_IsbL-0550_RLatLon0.09_PT011H.grib2 2026-04-16 20:43 354K
20260416T18Z_MSC_RDPS_DewPointDepression_IsbL-0600_RLatLon0.09_PT011H.grib2 2026-04-16 20:43 371K
20260416T18Z_MSC_RDPS_DewPointDepression_IsbL-0650_RLatLon0.09_PT011H.grib2 2026-04-16 20:43 379K
20260416T18Z_MSC_RDPS_DewPointDepression_IsbL-0700_RLatLon0.09_PT011H.grib2 2026-04-16 20:43 390K
20260416T18Z_MSC_RDPS_DewPointDepression_IsbL-0750_RLatLon0.09_PT011H.grib2 2026-04-16 20:43 410K
20260416T18Z_MSC_RDPS_DewPointDepression_IsbL-0800_RLatLon0.09_PT011H.grib2 2026-04-16 20:43 439K
20260416T18Z_MSC_RDPS_DewPointDepression_IsbL-0850_RLatLon0.09_PT011H.grib2 2026-04-16 20:43 460K
20260416T18Z_MSC_RDPS_DewPointDepression_IsbL-0875_RLatLon0.09_PT011H.grib2 2026-04-16 20:43 457K
20260416T18Z_MSC_RDPS_DewPointDepression_IsbL-0900_RLatLon0.09_PT011H.grib2 2026-04-16 20:43 453K
20260416T18Z_MSC_RDPS_DewPointDepression_IsbL-0925_RLatLon0.09_PT011H.grib2 2026-04-16 20:43 443K
20260416T18Z_MSC_RDPS_DewPointDepression_IsbL-0950_RLatLon0.09_PT011H.grib2 2026-04-16 20:43 433K
20260416T18Z_MSC_RDPS_DewPointDepression_IsbL-0970_RLatLon0.09_PT011H.grib2 2026-04-16 20:43 422K
20260416T18Z_MSC_RDPS_DewPointDepression_IsbL-0985_RLatLon0.09_PT011H.grib2 2026-04-16 20:43 416K
20260416T18Z_MSC_RDPS_DewPointDepression_IsbL-1000_RLatLon0.09_PT011H.grib2 2026-04-16 20:43 412K
20260416T18Z_MSC_RDPS_DewPointDepression_IsbL-1015_RLatLon0.09_PT011H.grib2 2026-04-16 20:43 403K
20260416T18Z_MSC_RDPS_DewPoint_AGL-2m_RLatLon0.09_PT011H.grib2 2026-04-16 20:43 302K
20260416T18Z_MSC_RDPS_DownwardLongwaveRadiationFlux-Accum_Sfc_RLatLon0.09_PT011H.grib2 2026-04-16 20:43 457K
20260416T18Z_MSC_RDPS_DownwardShortwaveRadiationFlux-Accum_NTAtm_RLatLon0.09_PT011H.grib2 2026-04-16 20:43 130K
20260416T18Z_MSC_RDPS_DownwardShortwaveRadiationFlux-Accum_Sfc_RLatLon0.09_PT011H.grib2 2026-04-16 20:43 486K
20260416T18Z_MSC_RDPS_FreezingRain-Accum1h_Sfc_RLatLon0.09_PT011H.grib2 2026-04-16 20:43 39K
20260416T18Z_MSC_RDPS_FreezingRain-Accum_Sfc_RLatLon0.09_PT011H.grib2 2026-04-16 20:43 66K
20260416T18Z_MSC_RDPS_GeopotentialHeight_IsbL-0001_RLatLon0.09_PT011H.grib2 2026-04-16 20:43 206K
20260416T18Z_MSC_RDPS_GeopotentialHeight_IsbL-0005_RLatLon0.09_PT011H.grib2 2026-04-16 20:43 231K
20260416T18Z_MSC_RDPS_GeopotentialHeight_IsbL-0010_RLatLon0.09_PT011H.grib2 2026-04-16 20:43 303K
20260416T18Z_MSC_RDPS_GeopotentialHeight_IsbL-0020_RLatLon0.09_PT011H.grib2 2026-04-16 20:43 331K
20260416T18Z_MSC_RDPS_GeopotentialHeight_IsbL-0030_RLatLon0.09_PT011H.grib2 2026-04-16 20:43 334K
20260416T18Z_MSC_RDPS_GeopotentialHeight_IsbL-0050_RLatLon0.09_PT011H.grib2 2026-04-16 20:43 236K
20260416T18Z_MSC_RDPS_GeopotentialHeight_IsbL-0100_RLatLon0.09_PT011H.grib2 2026-04-16 20:43 222K
20260416T18Z_MSC_RDPS_GeopotentialHeight_IsbL-0150_RLatLon0.09_PT011H.grib2 2026-04-16 20:43 262K
20260416T18Z_MSC_RDPS_GeopotentialHeight_IsbL-0175_RLatLon0.09_PT011H.grib2 2026-04-16 20:43 264K
20260416T18Z_MSC_RDPS_GeopotentialHeight_IsbL-0200_RLatLon0.09_PT011H.grib2 2026-04-16 20:43 266K
20260416T18Z_MSC_RDPS_GeopotentialHeight_IsbL-0225_RLatLon0.09_PT011H.grib2 2026-04-16 20:43 268K
20260416T18Z_MSC_RDPS_GeopotentialHeight_IsbL-0250_RLatLon0.09_PT011H.grib2 2026-04-16 20:43 269K
20260416T18Z_MSC_RDPS_GeopotentialHeight_IsbL-0275_RLatLon0.09_PT011H.grib2 2026-04-16 20:43 268K
20260416T18Z_MSC_RDPS_GeopotentialHeight_IsbL-0300_RLatLon0.09_PT011H.grib2 2026-04-16 20:43 267K
20260416T18Z_MSC_RDPS_GeopotentialHeight_IsbL-0350_RLatLon0.09_PT011H.grib2 2026-04-16 20:43 232K
20260416T18Z_MSC_RDPS_GeopotentialHeight_IsbL-0400_RLatLon0.09_PT011H.grib2 2026-04-16 20:43 228K
20260416T18Z_MSC_RDPS_GeopotentialHeight_IsbL-0450_RLatLon0.09_PT011H.grib2 2026-04-16 20:43 223K
20260416T18Z_MSC_RDPS_GeopotentialHeight_IsbL-0500_RLatLon0.09_PT011H.grib2 2026-04-16 20:43 289K
20260416T18Z_MSC_RDPS_GeopotentialHeight_IsbL-0550_RLatLon0.09_PT011H.grib2 2026-04-16 20:43 286K
20260416T18Z_MSC_RDPS_GeopotentialHeight_IsbL-0600_RLatLon0.09_PT011H.grib2 2026-04-16 20:43 282K
20260416T18Z_MSC_RDPS_GeopotentialHeight_IsbL-0650_RLatLon0.09_PT011H.grib2 2026-04-16 20:43 281K
20260416T18Z_MSC_RDPS_GeopotentialHeight_IsbL-0700_RLatLon0.09_PT011H.grib2 2026-04-16 20:43 251K
20260416T18Z_MSC_RDPS_GeopotentialHeight_IsbL-0750_RLatLon0.09_PT011H.grib2 2026-04-16 20:43 334K
20260416T18Z_MSC_RDPS_GeopotentialHeight_IsbL-0800_RLatLon0.09_PT011H.grib2 2026-04-16 20:43 342K
20260416T18Z_MSC_RDPS_GeopotentialHeight_IsbL-0850_RLatLon0.09_PT011H.grib2 2026-04-16 20:43 381K
20260416T18Z_MSC_RDPS_GeopotentialHeight_IsbL-0875_RLatLon0.09_PT011H.grib2 2026-04-16 20:43 384K
20260416T18Z_MSC_RDPS_GeopotentialHeight_IsbL-0900_RLatLon0.09_PT011H.grib2 2026-04-16 20:43 389K
20260416T18Z_MSC_RDPS_GeopotentialHeight_IsbL-0925_RLatLon0.09_PT011H.grib2 2026-04-16 20:43 393K
20260416T18Z_MSC_RDPS_GeopotentialHeight_IsbL-0950_RLatLon0.09_PT011H.grib2 2026-04-16 20:43 396K
20260416T18Z_MSC_RDPS_GeopotentialHeight_IsbL-0970_RLatLon0.09_PT011H.grib2 2026-04-16 20:43 400K
20260416T18Z_MSC_RDPS_GeopotentialHeight_IsbL-0985_RLatLon0.09_PT011H.grib2 2026-04-16 20:43 408K
20260416T18Z_MSC_RDPS_GeopotentialHeight_IsbL-1000_RLatLon0.09_PT011H.grib2 2026-04-16 20:43 420K
20260416T18Z_MSC_RDPS_GeopotentialHeight_IsbL-1015_RLatLon0.09_PT011H.grib2 2026-04-16 20:43 435K
20260416T18Z_MSC_RDPS_Humidex_Sfc_RLatLon0.09_PT011H.grib2 2026-04-16 20:43 2.4M
20260416T18Z_MSC_RDPS_IcePellets-Accum1h_Sfc_RLatLon0.09_PT011H.grib2 2026-04-16 20:43 9.9K
20260416T18Z_MSC_RDPS_IcePellets-Accum_Sfc_RLatLon0.09_PT011H.grib2 2026-04-16 20:43 15K
20260416T18Z_MSC_RDPS_KIndex_Sfc_RLatLon0.09_PT011H.grib2 2026-04-16 20:43 2.3M
20260416T18Z_MSC_RDPS_LatentHeatNetFlux_Sfc_RLatLon0.09_PT011H.grib2 2026-04-16 20:43 381K
20260416T18Z_MSC_RDPS_LiftedIndex-MU-VT_IsbL-0500_RLatLon0.09_PT011H.grib2 2026-04-16 20:43 2.4M
20260416T18Z_MSC_RDPS_NetLongwaveRadiationFlux-Accum_Sfc_RLatLon0.09_PT011H.grib2 2026-04-16 20:43 606K
20260416T18Z_MSC_RDPS_NetShortwaveRadiationFlux-Accum_Sfc_RLatLon0.09_PT011H.grib2 2026-04-16 20:43 481K
20260416T18Z_MSC_RDPS_PlanetaryBoundaryLayerHeight_Sfc_RLatLon0.09_PT011H.grib2 2026-04-16 20:43 1.1M
20260416T18Z_MSC_RDPS_Precip-Accum1h_Sfc_RLatLon0.09_PT011H.grib2 2026-04-16 20:43 1.2M
20260416T18Z_MSC_RDPS_Precip-Accum_Sfc_RLatLon0.09_PT011H.grib2 2026-04-16 20:43 1.7M
20260416T18Z_MSC_RDPS_PrecipRate_Sfc_RLatLon0.09_PT011H.grib2 2026-04-16 20:43 166K
20260416T18Z_MSC_RDPS_PrecipType-Instant_Sfc_RLatLon0.09_PT011H.grib2 2026-04-16 20:43 552K
20260416T18Z_MSC_RDPS_Pressure-Trend3h_Sfc_RLatLon0.09_PT011H.grib2 2026-04-16 20:43 1.2M
20260416T18Z_MSC_RDPS_Pressure_MSL_RLatLon0.09_PT011H.grib2 2026-04-16 20:43 290K
20260416T18Z_MSC_RDPS_Pressure_PVU-1.5_RLatLon0.09_PT011H.grib2 2026-04-16 20:43 2.4M
20260416T18Z_MSC_RDPS_Pressure_PVU-1_RLatLon0.09_PT011H.grib2 2026-04-16 20:43 2.4M
20260416T18Z_MSC_RDPS_Pressure_PVU-2_RLatLon0.09_PT011H.grib2 2026-04-16 20:43 2.4M
20260416T18Z_MSC_RDPS_Pressure_Sfc_RLatLon0.09_PT011H.grib2 2026-04-16 20:43 499K
20260416T18Z_MSC_RDPS_RadiativeTemp_Sfc_RLatLon0.09_PT011H.grib2 2026-04-16 20:43 300K
20260416T18Z_MSC_RDPS_Rain-Accum1h_Sfc_RLatLon0.09_PT011H.grib2 2026-04-16 20:43 570K
20260416T18Z_MSC_RDPS_Rain-Accum_Sfc_RLatLon0.09_PT011H.grib2 2026-04-16 20:43 1.2M
20260416T18Z_MSC_RDPS_RelativeHumidity_AGL-2m_RLatLon0.09_PT011H.grib2 2026-04-16 20:43 1.0M
20260416T18Z_MSC_RDPS_RelativeHumidity_IsbL-0010_RLatLon0.09_PT011H.grib2 2026-04-16 20:43 641K
20260416T18Z_MSC_RDPS_RelativeHumidity_IsbL-0020_RLatLon0.09_PT011H.grib2 2026-04-16 20:43 399K
20260416T18Z_MSC_RDPS_RelativeHumidity_IsbL-0030_RLatLon0.09_PT011H.grib2 2026-04-16 20:43 355K
20260416T18Z_MSC_RDPS_RelativeHumidity_IsbL-0050_RLatLon0.09_PT011H.grib2 2026-04-16 20:43 390K
20260416T18Z_MSC_RDPS_RelativeHumidity_IsbL-0100_RLatLon0.09_PT011H.grib2 2026-04-16 20:43 361K
20260416T18Z_MSC_RDPS_RelativeHumidity_IsbL-0150_RLatLon0.09_PT011H.grib2 2026-04-16 20:43 378K
20260416T18Z_MSC_RDPS_RelativeHumidity_IsbL-0175_RLatLon0.09_PT011H.grib2 2026-04-16 20:43 460K
20260416T18Z_MSC_RDPS_RelativeHumidity_IsbL-0200_RLatLon0.09_PT011H.grib2 2026-04-16 20:43 540K
20260416T18Z_MSC_RDPS_RelativeHumidity_IsbL-0225_RLatLon0.09_PT011H.grib2 2026-04-16 20:43 610K
20260416T18Z_MSC_RDPS_RelativeHumidity_IsbL-0250_RLatLon0.09_PT011H.grib2 2026-04-16 20:43 687K
20260416T18Z_MSC_RDPS_RelativeHumidity_IsbL-0275_RLatLon0.09_PT011H.grib2 2026-04-16 20:43 714K
20260416T18Z_MSC_RDPS_RelativeHumidity_IsbL-0300_RLatLon0.09_PT011H.grib2 2026-04-16 20:43 759K
20260416T18Z_MSC_RDPS_RelativeHumidity_IsbL-0350_RLatLon0.09_PT011H.grib2 2026-04-16 20:43 772K
20260416T18Z_MSC_RDPS_RelativeHumidity_IsbL-0400_RLatLon0.09_PT011H.grib2 2026-04-16 20:43 780K
20260416T18Z_MSC_RDPS_RelativeHumidity_IsbL-0450_RLatLon0.09_PT011H.grib2 2026-04-16 20:43 788K
20260416T18Z_MSC_RDPS_RelativeHumidity_IsbL-0500_RLatLon0.09_PT011H.grib2 2026-04-16 20:43 806K
20260416T18Z_MSC_RDPS_RelativeHumidity_IsbL-0550_RLatLon0.09_PT011H.grib2 2026-04-16 20:43 828K
20260416T18Z_MSC_RDPS_RelativeHumidity_IsbL-0600_RLatLon0.09_PT011H.grib2 2026-04-16 20:43 851K
20260416T18Z_MSC_RDPS_RelativeHumidity_IsbL-0650_RLatLon0.09_PT011H.grib2 2026-04-16 20:43 861K
20260416T18Z_MSC_RDPS_RelativeHumidity_IsbL-0700_RLatLon0.09_PT011H.grib2 2026-04-16 20:43 882K
20260416T18Z_MSC_RDPS_RelativeHumidity_IsbL-0750_RLatLon0.09_PT011H.grib2 2026-04-16 20:43 927K
20260416T18Z_MSC_RDPS_RelativeHumidity_IsbL-0800_RLatLon0.09_PT011H.grib2 2026-04-16 20:43 1.0M
20260416T18Z_MSC_RDPS_RelativeHumidity_IsbL-0850_RLatLon0.09_PT011H.grib2 2026-04-16 20:43 1.0M
20260416T18Z_MSC_RDPS_RelativeHumidity_IsbL-0875_RLatLon0.09_PT011H.grib2 2026-04-16 20:43 1.0M
20260416T18Z_MSC_RDPS_RelativeHumidity_IsbL-0900_RLatLon0.09_PT011H.grib2 2026-04-16 20:43 1.1M
20260416T18Z_MSC_RDPS_RelativeHumidity_IsbL-0925_RLatLon0.09_PT011H.grib2 2026-04-16 20:43 1.1M
20260416T18Z_MSC_RDPS_RelativeHumidity_IsbL-0950_RLatLon0.09_PT011H.grib2 2026-04-16 20:43 1.1M
20260416T18Z_MSC_RDPS_RelativeHumidity_IsbL-0970_RLatLon0.09_PT011H.grib2 2026-04-16 20:43 1.0M
20260416T18Z_MSC_RDPS_RelativeHumidity_IsbL-0985_RLatLon0.09_PT011H.grib2 2026-04-16 20:43 1.0M
20260416T18Z_MSC_RDPS_RelativeHumidity_IsbL-1000_RLatLon0.09_PT011H.grib2 2026-04-16 20:43 1.0M
20260416T18Z_MSC_RDPS_RelativeHumidity_IsbL-1015_RLatLon0.09_PT011H.grib2 2026-04-16 20:43 1.0M
20260416T18Z_MSC_RDPS_Runoff-Accum_Sfc_RLatLon0.09_PT011H.grib2 2026-04-16 20:43 36K
20260416T18Z_MSC_RDPS_SWEATIndex_Sfc_RLatLon0.09_PT011H.grib2 2026-04-16 20:43 2.4M
20260416T18Z_MSC_RDPS_SeeingIndex_EAtm_RLatLon0.09_PT011H.grib2 2026-04-16 20:43 1.0M
20260416T18Z_MSC_RDPS_SensibleHeatNetFlux_Sfc_RLatLon0.09_PT011H.grib2 2026-04-16 20:43 281K
20260416T18Z_MSC_RDPS_ShowalterIndex_IsbL-0500_RLatLon0.09_PT011H.grib2 2026-04-16 20:43 2.6M
20260416T18Z_MSC_RDPS_SkyTransparencyIndex_EAtm_RLatLon0.09_PT011H.grib2 2026-04-16 20:43 704K
20260416T18Z_MSC_RDPS_Snow-Accum1h_Sfc_RLatLon0.09_PT011H.grib2 2026-04-16 20:43 492K
20260416T18Z_MSC_RDPS_Snow-Accum_Sfc_RLatLon0.09_PT011H.grib2 2026-04-16 20:43 720K
20260416T18Z_MSC_RDPS_SnowDensity_Sfc_RLatLon0.09_PT011H.grib2 2026-04-16 20:43 176K
20260416T18Z_MSC_RDPS_SnowDepth_Sfc_RLatLon0.09_PT011H.grib2 2026-04-16 20:43 730K
20260416T18Z_MSC_RDPS_SoilTemp_DBS-0to10cm_RLatLon0.09_PT011H.grib2 2026-04-16 20:43 209K
20260416T18Z_MSC_RDPS_SoilTemp_Sfc_RLatLon0.09_PT011H.grib2 2026-04-16 20:43 278K
20260416T18Z_MSC_RDPS_SoilVolumetricIceContent_Sfc_RLatLon0.09_PT011H.grib2 2026-04-16 20:43 175K
20260416T18Z_MSC_RDPS_SoilVolumetricWaterContent_DBS-0to10cm_RLatLon0.09_PT011H.grib2 2026-04-16 20:43 245K
20260416T18Z_MSC_RDPS_SoilVolumetricWaterContent_DBS-0to1cm_RLatLon0.09_PT011H.grib2 2026-04-16 20:43 330K
20260416T18Z_MSC_RDPS_SpecificHumidity_AGL-120m_RLatLon0.09_PT011H.grib2 2026-04-16 20:43 466K
20260416T18Z_MSC_RDPS_SpecificHumidity_AGL-2m_RLatLon0.09_PT011H.grib2 2026-04-16 20:43 625K
20260416T18Z_MSC_RDPS_SpecificHumidity_AGL-40m_RLatLon0.09_PT011H.grib2 2026-04-16 20:43 470K
20260416T18Z_MSC_RDPS_SpecificHumidity_AGL-80m_RLatLon0.09_PT011H.grib2 2026-04-16 20:43 467K
20260416T18Z_MSC_RDPS_SpecificHumidity_IsbL-0001_RLatLon0.09_PT011H.grib2 2026-04-16 20:43 294K
20260416T18Z_MSC_RDPS_SpecificHumidity_IsbL-0005_RLatLon0.09_PT011H.grib2 2026-04-16 20:43 344K
20260416T18Z_MSC_RDPS_SpecificHumidity_IsbL-0010_RLatLon0.09_PT011H.grib2 2026-04-16 20:43 376K
20260416T18Z_MSC_RDPS_SpecificHumidity_IsbL-0020_RLatLon0.09_PT011H.grib2 2026-04-16 20:43 380K
20260416T18Z_MSC_RDPS_SpecificHumidity_IsbL-0030_RLatLon0.09_PT011H.grib2 2026-04-16 20:43 440K
20260416T18Z_MSC_RDPS_SpecificHumidity_IsbL-0050_RLatLon0.09_PT011H.grib2 2026-04-16 20:43 466K
20260416T18Z_MSC_RDPS_SpecificHumidity_IsbL-0100_RLatLon0.09_PT011H.grib2 2026-04-16 20:43 386K
20260416T18Z_MSC_RDPS_SpecificHumidity_IsbL-0150_RLatLon0.09_PT011H.grib2 2026-04-16 20:43 436K
20260416T18Z_MSC_RDPS_SpecificHumidity_IsbL-0175_RLatLon0.09_PT011H.grib2 2026-04-16 20:43 529K
20260416T18Z_MSC_RDPS_SpecificHumidity_IsbL-0200_RLatLon0.09_PT011H.grib2 2026-04-16 20:43 441K
20260416T18Z_MSC_RDPS_SpecificHumidity_IsbL-0225_RLatLon0.09_PT011H.grib2 2026-04-16 20:43 445K
20260416T18Z_MSC_RDPS_SpecificHumidity_IsbL-0250_RLatLon0.09_PT011H.grib2 2026-04-16 20:43 510K
20260416T18Z_MSC_RDPS_SpecificHumidity_IsbL-0275_RLatLon0.09_PT011H.grib2 2026-04-16 20:43 466K
20260416T18Z_MSC_RDPS_SpecificHumidity_IsbL-0300_RLatLon0.09_PT011H.grib2 2026-04-16 20:43 437K
20260416T18Z_MSC_RDPS_SpecificHumidity_IsbL-0350_RLatLon0.09_PT011H.grib2 2026-04-16 20:43 424K
20260416T18Z_MSC_RDPS_SpecificHumidity_IsbL-0400_RLatLon0.09_PT011H.grib2 2026-04-16 20:43 498K
20260416T18Z_MSC_RDPS_SpecificHumidity_IsbL-0450_RLatLon0.09_PT011H.grib2 2026-04-16 20:43 438K
20260416T18Z_MSC_RDPS_SpecificHumidity_IsbL-0500_RLatLon0.09_PT011H.grib2 2026-04-16 20:43 491K
20260416T18Z_MSC_RDPS_SpecificHumidity_IsbL-0550_RLatLon0.09_PT011H.grib2 2026-04-16 20:43 567K
20260416T18Z_MSC_RDPS_SpecificHumidity_IsbL-0600_RLatLon0.09_PT011H.grib2 2026-04-16 20:43 621K
20260416T18Z_MSC_RDPS_SpecificHumidity_IsbL-0650_RLatLon0.09_PT011H.grib2 2026-04-16 20:43 536K
20260416T18Z_MSC_RDPS_SpecificHumidity_IsbL-0700_RLatLon0.09_PT011H.grib2 2026-04-16 20:43 577K
20260416T18Z_MSC_RDPS_SpecificHumidity_IsbL-0750_RLatLon0.09_PT011H.grib2 2026-04-16 20:43 633K
20260416T18Z_MSC_RDPS_SpecificHumidity_IsbL-0800_RLatLon0.09_PT011H.grib2 2026-04-16 20:43 705K
20260416T18Z_MSC_RDPS_SpecificHumidity_IsbL-0850_RLatLon0.09_PT011H.grib2 2026-04-16 20:43 779K
20260416T18Z_MSC_RDPS_SpecificHumidity_IsbL-0875_RLatLon0.09_PT011H.grib2 2026-04-16 20:43 798K
20260416T18Z_MSC_RDPS_SpecificHumidity_IsbL-0900_RLatLon0.09_PT011H.grib2 2026-04-16 20:43 814K
20260416T18Z_MSC_RDPS_SpecificHumidity_IsbL-0925_RLatLon0.09_PT011H.grib2 2026-04-16 20:43 820K
20260416T18Z_MSC_RDPS_SpecificHumidity_IsbL-0950_RLatLon0.09_PT011H.grib2 2026-04-16 20:43 819K
20260416T18Z_MSC_RDPS_SpecificHumidity_IsbL-0970_RLatLon0.09_PT011H.grib2 2026-04-16 20:43 808K
20260416T18Z_MSC_RDPS_SpecificHumidity_IsbL-0985_RLatLon0.09_PT011H.grib2 2026-04-16 20:43 798K
20260416T18Z_MSC_RDPS_SpecificHumidity_IsbL-1000_RLatLon0.09_PT011H.grib2 2026-04-16 20:43 788K
20260416T18Z_MSC_RDPS_SpecificHumidity_IsbL-1015_RLatLon0.09_PT011H.grib2 2026-04-16 20:43 639K
20260416T18Z_MSC_RDPS_SpecificHumidity_Sfc_RLatLon0.09_PT011H.grib2 2026-04-16 20:43 277K
20260416T18Z_MSC_RDPS_StormRelativeHelicity_EtaL-10000_RLatLon0.09_PT011H.grib2 2026-04-16 20:43 1.1M
20260416T18Z_MSC_RDPS_StormSeverityIndex_EtaL-10000_RLatLon0.09_PT011H.grib2 2026-04-16 20:43 1.1M
20260416T18Z_MSC_RDPS_Thickness_IsbL-0850to0700_RLatLon0.09_PT011H.grib2 2026-04-16 20:43 173K
20260416T18Z_MSC_RDPS_Thickness_IsbL-1000to0500_RLatLon0.09_PT011H.grib2 2026-04-16 20:43 197K
20260416T18Z_MSC_RDPS_Thickness_IsbL-1000to0850_RLatLon0.09_PT011H.grib2 2026-04-16 20:43 182K
20260416T18Z_MSC_RDPS_TotalCloudCover_Sfc_RLatLon0.09_PT011H.grib2 2026-04-16 20:43 663K
20260416T18Z_MSC_RDPS_TotalTotalsIndex_Sfc_RLatLon0.09_PT011H.grib2 2026-04-16 20:43 2.4M
20260416T18Z_MSC_RDPS_UVIndex-ClearSky_Sfc_RLatLon0.09_PT011H.grib2 2026-04-16 20:43 85K
20260416T18Z_MSC_RDPS_UVIndex_Sfc_RLatLon0.09_PT011H.grib2 2026-04-16 20:43 140K
20260416T18Z_MSC_RDPS_UpwardLongwaveRadiationFlux_NTAtm_RLatLon0.09_PT011H.grib2 2026-04-16 20:43 477K
20260416T18Z_MSC_RDPS_UpwardShortwaveRadiationFlux_NTAtm_RLatLon0.09_PT011H.grib2 2026-04-16 20:43 156K
20260416T18Z_MSC_RDPS_VerticalVelocity_IsbL-0250_RLatLon0.09_PT011H.grib2 2026-04-16 20:43 546K
20260416T18Z_MSC_RDPS_VerticalVelocity_IsbL-0500_RLatLon0.09_PT011H.grib2 2026-04-16 20:43 535K
20260416T18Z_MSC_RDPS_VerticalVelocity_IsbL-0700_RLatLon0.09_PT011H.grib2 2026-04-16 20:43 584K
20260416T18Z_MSC_RDPS_VerticalVelocity_IsbL-0850_RLatLon0.09_PT011H.grib2 2026-04-16 20:43 683K
20260416T18Z_MSC_RDPS_VerticalWindShear_EtaL-6500_RLatLon0.09_PT011H.grib2 2026-04-16 20:43 1.2M
20260416T18Z_MSC_RDPS_WindChill_Sfc_RLatLon0.09_PT011H.grib2 2026-04-16 20:43 1.2M
20260416T18Z_MSC_RDPS_WindDir_AGL-10m_RLatLon0.09_PT011H.grib2 2026-04-16 20:43 1.0M
20260416T18Z_MSC_RDPS_WindDir_AGL-120m_RLatLon0.09_PT011H.grib2 2026-04-16 20:43 598K
20260416T18Z_MSC_RDPS_WindDir_AGL-40m_RLatLon0.09_PT011H.grib2 2026-04-16 20:43 637K
20260416T18Z_MSC_RDPS_WindDir_AGL-80m_RLatLon0.09_PT011H.grib2 2026-04-16 20:43 613K
20260416T18Z_MSC_RDPS_WindDir_IsbL-0001_RLatLon0.09_PT011H.grib2 2026-04-16 20:43 249K
20260416T18Z_MSC_RDPS_WindDir_IsbL-0005_RLatLon0.09_PT011H.grib2 2026-04-16 20:43 348K
20260416T18Z_MSC_RDPS_WindDir_IsbL-0010_RLatLon0.09_PT011H.grib2 2026-04-16 20:43 353K
20260416T18Z_MSC_RDPS_WindDir_IsbL-0020_RLatLon0.09_PT011H.grib2 2026-04-16 20:43 370K
20260416T18Z_MSC_RDPS_WindDir_IsbL-0030_RLatLon0.09_PT011H.grib2 2026-04-16 20:43 359K
20260416T18Z_MSC_RDPS_WindDir_IsbL-0050_RLatLon0.09_PT011H.grib2 2026-04-16 20:43 394K
20260416T18Z_MSC_RDPS_WindDir_IsbL-0100_RLatLon0.09_PT011H.grib2 2026-04-16 20:43 391K
20260416T18Z_MSC_RDPS_WindDir_IsbL-0150_RLatLon0.09_PT011H.grib2 2026-04-16 20:43 372K
20260416T18Z_MSC_RDPS_WindDir_IsbL-0175_RLatLon0.09_PT011H.grib2 2026-04-16 20:43 398K
20260416T18Z_MSC_RDPS_WindDir_IsbL-0200_RLatLon0.09_PT011H.grib2 2026-04-16 20:43 416K
20260416T18Z_MSC_RDPS_WindDir_IsbL-0225_RLatLon0.09_PT011H.grib2 2026-04-16 20:43 427K
20260416T18Z_MSC_RDPS_WindDir_IsbL-0250_RLatLon0.09_PT011H.grib2 2026-04-16 20:43 432K
20260416T18Z_MSC_RDPS_WindDir_IsbL-0275_RLatLon0.09_PT011H.grib2 2026-04-16 20:43 458K
20260416T18Z_MSC_RDPS_WindDir_IsbL-0300_RLatLon0.09_PT011H.grib2 2026-04-16 20:43 458K
20260416T18Z_MSC_RDPS_WindDir_IsbL-0350_RLatLon0.09_PT011H.grib2 2026-04-16 20:43 478K
20260416T18Z_MSC_RDPS_WindDir_IsbL-0400_RLatLon0.09_PT011H.grib2 2026-04-16 20:43 501K
20260416T18Z_MSC_RDPS_WindDir_IsbL-0450_RLatLon0.09_PT011H.grib2 2026-04-16 20:43 521K
20260416T18Z_MSC_RDPS_WindDir_IsbL-0500_RLatLon0.09_PT011H.grib2 2026-04-16 20:43 546K
20260416T18Z_MSC_RDPS_WindDir_IsbL-0550_RLatLon0.09_PT011H.grib2 2026-04-16 20:43 571K
20260416T18Z_MSC_RDPS_WindDir_IsbL-0600_RLatLon0.09_PT011H.grib2 2026-04-16 20:43 598K
20260416T18Z_MSC_RDPS_WindDir_IsbL-0650_RLatLon0.09_PT011H.grib2 2026-04-16 20:43 634K
20260416T18Z_MSC_RDPS_WindDir_IsbL-0700_RLatLon0.09_PT011H.grib2 2026-04-16 20:43 678K
20260416T18Z_MSC_RDPS_WindDir_IsbL-0750_RLatLon0.09_PT011H.grib2 2026-04-16 20:43 718K
20260416T18Z_MSC_RDPS_WindDir_IsbL-0800_RLatLon0.09_PT011H.grib2 2026-04-16 20:43 778K
20260416T18Z_MSC_RDPS_WindDir_IsbL-0850_RLatLon0.09_PT011H.grib2 2026-04-16 20:43 847K
20260416T18Z_MSC_RDPS_WindDir_IsbL-0875_RLatLon0.09_PT011H.grib2 2026-04-16 20:43 876K
20260416T18Z_MSC_RDPS_WindDir_IsbL-0900_RLatLon0.09_PT011H.grib2 2026-04-16 20:43 892K
20260416T18Z_MSC_RDPS_WindDir_IsbL-0925_RLatLon0.09_PT011H.grib2 2026-04-16 20:43 905K
20260416T18Z_MSC_RDPS_WindDir_IsbL-0950_RLatLon0.09_PT011H.grib2 2026-04-16 20:43 908K
20260416T18Z_MSC_RDPS_WindDir_IsbL-0970_RLatLon0.09_PT011H.grib2 2026-04-16 20:43 917K
20260416T18Z_MSC_RDPS_WindDir_IsbL-0985_RLatLon0.09_PT011H.grib2 2026-04-16 20:43 929K
20260416T18Z_MSC_RDPS_WindDir_IsbL-1000_RLatLon0.09_PT011H.grib2 2026-04-16 20:43 947K
20260416T18Z_MSC_RDPS_WindDir_IsbL-1015_RLatLon0.09_PT011H.grib2 2026-04-16 20:43 966K
20260416T18Z_MSC_RDPS_WindGust-Max_AGL-10m_RLatLon0.09_PT011H.grib2 2026-04-16 20:43 962K
20260416T18Z_MSC_RDPS_WindGust-Min_AGL-10m_RLatLon0.09_PT011H.grib2 2026-04-16 20:43 970K
20260416T18Z_MSC_RDPS_WindGust_AGL-10m_RLatLon0.09_PT011H.grib2 2026-04-16 20:43 1.0M
20260416T18Z_MSC_RDPS_WindSpeed_AGL-10m_RLatLon0.09_PT011H.grib2 2026-04-16 20:43 840K
20260416T18Z_MSC_RDPS_WindSpeed_AGL-120m_RLatLon0.09_PT011H.grib2 2026-04-16 20:43 538K
20260416T18Z_MSC_RDPS_WindSpeed_AGL-40m_RLatLon0.09_PT011H.grib2 2026-04-16 20:43 541K
20260416T18Z_MSC_RDPS_WindSpeed_AGL-80m_RLatLon0.09_PT011H.grib2 2026-04-16 20:43 539K
20260416T18Z_MSC_RDPS_WindSpeed_IsbL-0001_RLatLon0.09_PT011H.grib2 2026-04-16 20:43 290K
20260416T18Z_MSC_RDPS_WindSpeed_IsbL-0005_RLatLon0.09_PT011H.grib2 2026-04-16 20:43 332K
20260416T18Z_MSC_RDPS_WindSpeed_IsbL-0010_RLatLon0.09_PT011H.grib2 2026-04-16 20:43 343K
20260416T18Z_MSC_RDPS_WindSpeed_IsbL-0020_RLatLon0.09_PT011H.grib2 2026-04-16 20:43 361K
20260416T18Z_MSC_RDPS_WindSpeed_IsbL-0030_RLatLon0.09_PT011H.grib2 2026-04-16 20:43 327K
20260416T18Z_MSC_RDPS_WindSpeed_IsbL-0050_RLatLon0.09_PT011H.grib2 2026-04-16 20:43 367K
20260416T18Z_MSC_RDPS_WindSpeed_IsbL-0100_RLatLon0.09_PT011H.grib2 2026-04-16 20:43 485K
20260416T18Z_MSC_RDPS_WindSpeed_IsbL-0150_RLatLon0.09_PT011H.grib2 2026-04-16 20:43 369K
20260416T18Z_MSC_RDPS_WindSpeed_IsbL-0175_RLatLon0.09_PT011H.grib2 2026-04-16 20:43 393K
20260416T18Z_MSC_RDPS_WindSpeed_IsbL-0200_RLatLon0.09_PT011H.grib2 2026-04-16 20:43 433K
20260416T18Z_MSC_RDPS_WindSpeed_IsbL-0225_RLatLon0.09_PT011H.grib2 2026-04-16 20:43 442K
20260416T18Z_MSC_RDPS_WindSpeed_IsbL-0250_RLatLon0.09_PT011H.grib2 2026-04-16 20:43 448K
20260416T18Z_MSC_RDPS_WindSpeed_IsbL-0275_RLatLon0.09_PT011H.grib2 2026-04-16 20:43 465K
20260416T18Z_MSC_RDPS_WindSpeed_IsbL-0300_RLatLon0.09_PT011H.grib2 2026-04-16 20:43 463K
20260416T18Z_MSC_RDPS_WindSpeed_IsbL-0350_RLatLon0.09_PT011H.grib2 2026-04-16 20:43 472K
20260416T18Z_MSC_RDPS_WindSpeed_IsbL-0400_RLatLon0.09_PT011H.grib2 2026-04-16 20:43 457K
20260416T18Z_MSC_RDPS_WindSpeed_IsbL-0450_RLatLon0.09_PT011H.grib2 2026-04-16 20:43 454K
20260416T18Z_MSC_RDPS_WindSpeed_IsbL-0500_RLatLon0.09_PT011H.grib2 2026-04-16 20:43 572K
20260416T18Z_MSC_RDPS_WindSpeed_IsbL-0550_RLatLon0.09_PT011H.grib2 2026-04-16 20:43 576K
20260416T18Z_MSC_RDPS_WindSpeed_IsbL-0600_RLatLon0.09_PT011H.grib2 2026-04-16 20:43 587K
20260416T18Z_MSC_RDPS_WindSpeed_IsbL-0650_RLatLon0.09_PT011H.grib2 2026-04-16 20:43 651K
20260416T18Z_MSC_RDPS_WindSpeed_IsbL-0700_RLatLon0.09_PT011H.grib2 2026-04-16 20:43 631K
20260416T18Z_MSC_RDPS_WindSpeed_IsbL-0750_RLatLon0.09_PT011H.grib2 2026-04-16 20:43 702K
20260416T18Z_MSC_RDPS_WindSpeed_IsbL-0800_RLatLon0.09_PT011H.grib2 2026-04-16 20:43 707K
20260416T18Z_MSC_RDPS_WindSpeed_IsbL-0850_RLatLon0.09_PT011H.grib2 2026-04-16 20:43 762K
20260416T18Z_MSC_RDPS_WindSpeed_IsbL-0875_RLatLon0.09_PT011H.grib2 2026-04-16 20:43 785K
20260416T18Z_MSC_RDPS_WindSpeed_IsbL-0900_RLatLon0.09_PT011H.grib2 2026-04-16 20:43 802K
20260416T18Z_MSC_RDPS_WindSpeed_IsbL-0925_RLatLon0.09_PT011H.grib2 2026-04-16 20:43 862K
20260416T18Z_MSC_RDPS_WindSpeed_IsbL-0950_RLatLon0.09_PT011H.grib2 2026-04-16 20:43 864K
20260416T18Z_MSC_RDPS_WindSpeed_IsbL-0970_RLatLon0.09_PT011H.grib2 2026-04-16 20:43 860K
20260416T18Z_MSC_RDPS_WindSpeed_IsbL-0985_RLatLon0.09_PT011H.grib2 2026-04-16 20:43 856K
20260416T18Z_MSC_RDPS_WindSpeed_IsbL-1000_RLatLon0.09_PT011H.grib2 2026-04-16 20:43 850K
20260416T18Z_MSC_RDPS_WindSpeed_IsbL-1015_RLatLon0.09_PT011H.grib2 2026-04-16 20:43 839K
20260416T18Z_MSC_RDPS_WindU_AGL-10m_RLatLon0.09_PT011H.grib2 2026-04-16 20:43 431K
20260416T18Z_MSC_RDPS_WindU_AGL-120m_RLatLon0.09_PT011H.grib2 2026-04-16 20:43 418K
20260416T18Z_MSC_RDPS_WindU_AGL-40m_RLatLon0.09_PT011H.grib2 2026-04-16 20:43 539K
20260416T18Z_MSC_RDPS_WindU_AGL-80m_RLatLon0.09_PT011H.grib2 2026-04-16 20:43 537K
20260416T18Z_MSC_RDPS_WindU_IsbL-0001_RLatLon0.09_PT011H.grib2 2026-04-16 20:43 285K
20260416T18Z_MSC_RDPS_WindU_IsbL-0005_RLatLon0.09_PT011H.grib2 2026-04-16 20:43 299K
20260416T18Z_MSC_RDPS_WindU_IsbL-0010_RLatLon0.09_PT011H.grib2 2026-04-16 20:43 308K
20260416T18Z_MSC_RDPS_WindU_IsbL-0020_RLatLon0.09_PT011H.grib2 2026-04-16 20:43 326K
20260416T18Z_MSC_RDPS_WindU_IsbL-0030_RLatLon0.09_PT011H.grib2 2026-04-16 20:43 254K
20260416T18Z_MSC_RDPS_WindU_IsbL-0050_RLatLon0.09_PT011H.grib2 2026-04-16 20:43 361K
20260416T18Z_MSC_RDPS_WindU_IsbL-0100_RLatLon0.09_PT011H.grib2 2026-04-16 20:43 343K
20260416T18Z_MSC_RDPS_WindU_IsbL-0150_RLatLon0.09_PT011H.grib2 2026-04-16 20:43 387K
20260416T18Z_MSC_RDPS_WindU_IsbL-0175_RLatLon0.09_PT011H.grib2 2026-04-16 20:43 410K
20260416T18Z_MSC_RDPS_WindU_IsbL-0200_RLatLon0.09_PT011H.grib2 2026-04-16 20:43 427K
20260416T18Z_MSC_RDPS_WindU_IsbL-0225_RLatLon0.09_PT011H.grib2 2026-04-16 20:43 435K
20260416T18Z_MSC_RDPS_WindU_IsbL-0250_RLatLon0.09_PT011H.grib2 2026-04-16 20:43 439K
20260416T18Z_MSC_RDPS_WindU_IsbL-0275_RLatLon0.09_PT011H.grib2 2026-04-16 20:43 356K
20260416T18Z_MSC_RDPS_WindU_IsbL-0300_RLatLon0.09_PT011H.grib2 2026-04-16 20:43 352K
20260416T18Z_MSC_RDPS_WindU_IsbL-0350_RLatLon0.09_PT011H.grib2 2026-04-16 20:43 460K
20260416T18Z_MSC_RDPS_WindU_IsbL-0400_RLatLon0.09_PT011H.grib2 2026-04-16 20:43 463K
20260416T18Z_MSC_RDPS_WindU_IsbL-0450_RLatLon0.09_PT011H.grib2 2026-04-16 20:43 462K
20260416T18Z_MSC_RDPS_WindU_IsbL-0500_RLatLon0.09_PT011H.grib2 2026-04-16 20:43 463K
20260416T18Z_MSC_RDPS_WindU_IsbL-0550_RLatLon0.09_PT011H.grib2 2026-04-16 20:43 467K
20260416T18Z_MSC_RDPS_WindU_IsbL-0600_RLatLon0.09_PT011H.grib2 2026-04-16 20:43 476K
20260416T18Z_MSC_RDPS_WindU_IsbL-0650_RLatLon0.09_PT011H.grib2 2026-04-16 20:43 479K
20260416T18Z_MSC_RDPS_WindU_IsbL-0700_RLatLon0.09_PT011H.grib2 2026-04-16 20:43 499K
20260416T18Z_MSC_RDPS_WindU_IsbL-0750_RLatLon0.09_PT011H.grib2 2026-04-16 20:43 524K
20260416T18Z_MSC_RDPS_WindU_IsbL-0800_RLatLon0.09_PT011H.grib2 2026-04-16 20:43 566K
20260416T18Z_MSC_RDPS_WindU_IsbL-0850_RLatLon0.09_PT011H.grib2 2026-04-16 20:43 617K
20260416T18Z_MSC_RDPS_WindU_IsbL-0875_RLatLon0.09_PT011H.grib2 2026-04-16 20:43 646K
20260416T18Z_MSC_RDPS_WindU_IsbL-0900_RLatLon0.09_PT011H.grib2 2026-04-16 20:43 657K
20260416T18Z_MSC_RDPS_WindU_IsbL-0925_RLatLon0.09_PT011H.grib2 2026-04-16 20:43 666K
20260416T18Z_MSC_RDPS_WindU_IsbL-0950_RLatLon0.09_PT011H.grib2 2026-04-16 20:43 659K
20260416T18Z_MSC_RDPS_WindU_IsbL-0970_RLatLon0.09_PT011H.grib2 2026-04-16 20:43 656K
20260416T18Z_MSC_RDPS_WindU_IsbL-0985_RLatLon0.09_PT011H.grib2 2026-04-16 20:43 792K
20260416T18Z_MSC_RDPS_WindU_IsbL-1000_RLatLon0.09_PT011H.grib2 2026-04-16 20:43 787K
20260416T18Z_MSC_RDPS_WindU_IsbL-1015_RLatLon0.09_PT011H.grib2 2026-04-16 20:43 779K
20260416T18Z_MSC_RDPS_WindV_AGL-10m_RLatLon0.09_PT011H.grib2 2026-04-16 20:43 429K
20260416T18Z_MSC_RDPS_WindV_AGL-120m_RLatLon0.09_PT011H.grib2 2026-04-16 20:43 415K
20260416T18Z_MSC_RDPS_WindV_AGL-40m_RLatLon0.09_PT011H.grib2 2026-04-16 20:43 535K
20260416T18Z_MSC_RDPS_WindV_AGL-80m_RLatLon0.09_PT011H.grib2 2026-04-16 20:43 417K
20260416T18Z_MSC_RDPS_WindV_IsbL-0001_RLatLon0.09_PT011H.grib2 2026-04-16 20:43 261K
20260416T18Z_MSC_RDPS_WindV_IsbL-0005_RLatLon0.09_PT011H.grib2 2026-04-16 20:43 297K
20260416T18Z_MSC_RDPS_WindV_IsbL-0010_RLatLon0.09_PT011H.grib2 2026-04-16 20:43 306K
20260416T18Z_MSC_RDPS_WindV_IsbL-0020_RLatLon0.09_PT011H.grib2 2026-04-16 20:43 314K
20260416T18Z_MSC_RDPS_WindV_IsbL-0030_RLatLon0.09_PT011H.grib2 2026-04-16 20:43 357K
20260416T18Z_MSC_RDPS_WindV_IsbL-0050_RLatLon0.09_PT011H.grib2 2026-04-16 20:43 360K
20260416T18Z_MSC_RDPS_WindV_IsbL-0100_RLatLon0.09_PT011H.grib2 2026-04-16 20:43 432K
20260416T18Z_MSC_RDPS_WindV_IsbL-0150_RLatLon0.09_PT011H.grib2 2026-04-16 20:43 383K
20260416T18Z_MSC_RDPS_WindV_IsbL-0175_RLatLon0.09_PT011H.grib2 2026-04-16 20:43 316K
20260416T18Z_MSC_RDPS_WindV_IsbL-0200_RLatLon0.09_PT011H.grib2 2026-04-16 20:43 330K
20260416T18Z_MSC_RDPS_WindV_IsbL-0225_RLatLon0.09_PT011H.grib2 2026-04-16 20:43 338K
20260416T18Z_MSC_RDPS_WindV_IsbL-0250_RLatLon0.09_PT011H.grib2 2026-04-16 20:43 340K
20260416T18Z_MSC_RDPS_WindV_IsbL-0275_RLatLon0.09_PT011H.grib2 2026-04-16 20:43 354K
20260416T18Z_MSC_RDPS_WindV_IsbL-0300_RLatLon0.09_PT011H.grib2 2026-04-16 20:43 350K
20260416T18Z_MSC_RDPS_WindV_IsbL-0350_RLatLon0.09_PT011H.grib2 2026-04-16 20:43 357K
20260416T18Z_MSC_RDPS_WindV_IsbL-0400_RLatLon0.09_PT011H.grib2 2026-04-16 20:43 359K
20260416T18Z_MSC_RDPS_WindV_IsbL-0450_RLatLon0.09_PT011H.grib2 2026-04-16 20:43 460K
20260416T18Z_MSC_RDPS_WindV_IsbL-0500_RLatLon0.09_PT011H.grib2 2026-04-16 20:43 461K
20260416T18Z_MSC_RDPS_WindV_IsbL-0550_RLatLon0.09_PT011H.grib2 2026-04-16 20:43 464K
20260416T18Z_MSC_RDPS_WindV_IsbL-0600_RLatLon0.09_PT011H.grib2 2026-04-16 20:43 456K
20260416T18Z_MSC_RDPS_WindV_IsbL-0650_RLatLon0.09_PT011H.grib2 2026-04-16 20:43 475K
20260416T18Z_MSC_RDPS_WindV_IsbL-0700_RLatLon0.09_PT011H.grib2 2026-04-16 20:43 497K
20260416T18Z_MSC_RDPS_WindV_IsbL-0750_RLatLon0.09_PT011H.grib2 2026-04-16 20:43 521K
20260416T18Z_MSC_RDPS_WindV_IsbL-0800_RLatLon0.09_PT011H.grib2 2026-04-16 20:43 563K
20260416T18Z_MSC_RDPS_WindV_IsbL-0850_RLatLon0.09_PT011H.grib2 2026-04-16 20:43 746K
20260416T18Z_MSC_RDPS_WindV_IsbL-0875_RLatLon0.09_PT011H.grib2 2026-04-16 20:43 632K
20260416T18Z_MSC_RDPS_WindV_IsbL-0900_RLatLon0.09_PT011H.grib2 2026-04-16 20:43 646K
20260416T18Z_MSC_RDPS_WindV_IsbL-0925_RLatLon0.09_PT011H.grib2 2026-04-16 20:43 657K
20260416T18Z_MSC_RDPS_WindV_IsbL-0950_RLatLon0.09_PT011H.grib2 2026-04-16 20:43 655K
20260416T18Z_MSC_RDPS_WindV_IsbL-0970_RLatLon0.09_PT011H.grib2 2026-04-16 20:43 652K
20260416T18Z_MSC_RDPS_WindV_IsbL-0985_RLatLon0.09_PT011H.grib2 2026-04-16 20:43 788K
20260416T18Z_MSC_RDPS_WindV_IsbL-1000_RLatLon0.09_PT011H.grib2 2026-04-16 20:43 783K
20260416T18Z_MSC_RDPS_WindV_IsbL-1015_RLatLon0.09_PT011H.grib2 2026-04-16 20:43 775K